Content
SEND FEEDBACK

Daily
Averages
Monthly
Summary
United States of America

MANCHESTER CENTER, VERMONT


Home > North America > United States > Vermont
Elevation: 950 feet     Latitude: 43 10N     Longitude: 073 04W

WEATHER
 
SELECT A DAY
Number of Records: 183,953;   Date Range: 12/9/98 - 12/19/14
 
SHARE

PRINT THIS DATA

[ ← Previous Day ]
WEATHER ALMANAC - AUGUST 15, 2014
[ Next Day → ]
[ °C ]   °F
Weather ElementAverageHighLow
Temperature55.7 °F62.1 °F (3:47 am)46.9 °F (5:54 am)
Dewpoint50.8 °F53.1 °F (2:54 pm)46 °F (5:40 am)
Humidity84.2 %97 % (6:54 am)67 % (4:54 pm)
Barometer29.91 in29.94 in (12:54 am)29.88 in (12:54 pm)
Wind Speed2.5 mph11.5 mph (4:54 am)
Wind Gust17.3 mph (4:54 am)
Weather ElementAverage
Visibility8.4 mi
Wind DirectionE (88.1 °)

Weather ElementTotal
Precipitation---
Heating Degree Days10.5 (Base 65)
Growing Degree Days4.5 (Base 50)
Averaged from 37 records on August 15, 2014
WEATHER CONDITIONS BREAKOUT
WIND DIRECTION BREAKOUT
WEATHER BY HOUR - AUGUST 15, 2014
[ °C ]   °F
Local TimeTemperatureDewpointHumidityBarometerVisibilityWind DirectionWind SpeedGust SpeedPrecipitationEventsConditions
12:54 AM55.0 °F53.1 °F93 %29.90 in9.0 miCalmOvercast
1:54 AM55.0 °F52.0 °F89 %29.89 in10.0 miCalm0.00 inMostly Cloudy
2:54 AM53.1 °F51.1 °F93 %29.88 in8.0 miCalmScattered Clouds
3:54 AM52.0 °F50.0 °F93 %29.88 in9.0 miCalmMostly Cloudy
4:18 AM51.1 °F48.9 °F92 %29.88 in2.5 miCalmScattered Clouds
4:25 AM50.0 °F48.9 °F96 %29.88 in1.2 miCalmPartly Cloudy
4:30 AM50.0 °F48.0 °F93 %29.88 in3.0 miCalmPartly Cloudy
4:42 AM48.9 °F48.0 °F97 %29.88 in2.5 miCalmClear
4:51 AM50.0 °F48.2 °F94 %29.88 in6.0 miCalmClear
4:54 AM50.0 °F48.0 °F93 %29.88 in6.0 miCalmClear
5:54 AM46.9 °F46.0 °F97 %29.88 in4.0 miCalmPartly Cloudy
6:54 AM51.1 °F48.9 °F92 %29.89 in10.0 miCalmOvercast
7:54 AM54.0 °F51.1 °F90 %29.90 in10.0 miCalmOvercast
8:54 AM55.9 °F53.1 °F90 %29.91 in10.0 miCalmOvercast
9:54 AM55.9 °F50.0 °F80 %29.92 in10.0 miWest (280°)3.5 mphOvercast
10:25 AM55.9 °F51.1 °F84 %29.92 in10.0 miVariable5.8 mphOvercast
10:54 AM55.9 °F51.1 °F84 %29.92 in8.0 miVariable3.5 mphOvercast
11:22 AM57.0 °F52.0 °F83 %29.92 in10.0 miSSW (210°)4.6 mph0.00 inOvercast
11:32 AM57.0 °F51.1 °F81 %29.92 in10.0 miSW (230°)3.5 mph0.00 inOvercast
11:54 AM57.0 °F52.0 °F83 %29.92 in10.0 miSW (230°)3.5 mph0.00 inOvercast
12:04 PM57.0 °F51.1 °F81 %29.92 in10.0 miWSW (250°)5.8 mphOvercast
12:21 PM57.9 °F52.0 °F81 %29.92 in10.0 miWSW (240°)3.5 mphOvercast
12:50 PM57.2 °F51.8 °F82 %29.91 in10.0 miSW (220°)4.6 mph0.00 inRainLight Rain
12:54 PM57.0 °F51.1 °F81 %29.92 in10.0 miSSW (210°)5.8 mph0.00 inRainLight Rain
1:10 PM59.0 °F52.0 °F78 %29.91 in10.0 miSSW (200°)4.6 mph0.00 inOvercast
1:33 PM60.1 °F52.0 °F75 %29.91 in10.0 miVariable3.5 mph0.00 inOvercast
1:54 PM59.0 °F51.1 °F75 %29.91 in10.0 miSSW (210°)5.8 mph0.00 inOvercast
2:54 PM59.0 °F53.1 °F81 %29.91 in3.0 miCalm0.00 inRainLight Rain
3:54 PM61.0 °F52.0 °F72 %29.90 in10.0 miSSW (210°)6.9 mph0.00 inOvercast
4:54 PM62.1 °F51.1 °F67 %29.91 in10.0 miWest (270°)10.4 mph17.3 mphOvercast
5:54 PM61.0 °F51.1 °F70 %29.91 in10.0 miWSW (250°)11.5 mphOvercast
6:54 PM60.1 °F50.0 °F69 %29.92 in10.0 miWSW (250°)5.8 mphOvercast
7:54 PM57.9 °F53.1 °F84 %29.93 in10.0 miCalmOvercast
8:54 PM57.9 °F51.1 °F78 %29.93 in10.0 miCalmOvercast
9:54 PM57.9 °F52.0 °F81 %29.94 in10.0 miCalmOvercast
10:54 PM57.9 °F50.0 °F75 %29.94 in10.0 miCalmOvercast
11:54 PM55.9 °F52.0 °F87 %29.94 in10.0 miCalmOvercast
Hourly data recorded from KDDH, located miles away from Manchester Center, Vermont







STORIES FROM OUR PARTNERS